| time (UTC) | temp F | wind direction | speed knots | gust knots | rain 1hr in | rain 24hr in | rain mn in | humidity % | barometer mb |
| 20260508205112 | 45 | 0 | 0.0 | 0.0 | 0.00 | 0.02 | 0.00 | 89 | 1007.1 |
| 20260508203613 | 40 | 0 | 0.0 | 0.0 | 0.00 | 0.02 | 0.00 | 91 | 1006.5 |
| 20260508202113 | 40 | 0 | 0.0 | 0.0 | 0.00 | 0.02 | 0.00 | 92 | 1006.2 |
| 20260508200614 | 40 | 0 | 0.0 | 0.0 | 0.00 | 0.02 | 0.00 | 92 | 1006.0 |
| 20260508195113 | 40 | 0 | 0.0 | 0.0 | 0.00 | 0.02 | 0.00 | 91 | 1006.0 |
| 20260508193612 | 40 | 0 | 0.0 | 0.0 | 0.00 | 0.02 | 0.00 | 91 | 1006.1 |
| 20260508192114 | 40 | 0 | 0.0 | 0.0 | 0.00 | 0.02 | 0.00 | 91 | 1005.8 |
| 20260508190612 | 41 | 0 | 0.0 | 0.0 | 0.00 | 0.02 | 0.00 | 91 | 1005.7 |
| 20260508185113 | 41 | 0 | 0.0 | 0.0 | 0.00 | 0.02 | 0.00 | 90 | 1005.6 |
| 20260508183613 | 42 | 0 | 0.0 | 0.0 | 0.00 | 0.02 | 0.00 | 89 | 1005.6 |
| 20260508182112 | 43 | 0 | 0.0 | 0.0 | 0.00 | 0.02 | 0.00 | 89 | 1005.6 |
| 20260508180613 | 43 | 0 | 0.0 | 0.0 | 0.00 | 0.02 | 0.00 | 89 | 1005.5 |
| 20260508175113 | 44 | 0 | 0.0 | 0.0 | 0.00 | 0.02 | 0.00 | 89 | 1005.3 |
| 20260508173612 | 44 | 0 | 0.0 | 0.0 | 0.00 | 0.02 | 0.00 | 89 | 1005.4 |
| 20260508172113 | 45 | 0 | 0.0 | 0.0 | 0.00 | 0.02 | 0.00 | 90 | 1005.4 |
| 20260508170613 | 46 | 0 | 0.0 | 0.0 | 0.00 | 0.02 | 0.00 | 90 | 1005.5 |
| 20260508165113 | 47 | 0 | 0.0 | 0.0 | 0.00 | 0.02 | 0.00 | 90 | 1005.6 |
| 20260508163613 | 48 | 0 | 0.0 | 0.0 | 0.00 | 0.02 | 0.00 | 89 | 1005.6 |
| 20260508162113 | 49 | 0 | 0.0 | 0.0 | 0.00 | 0.02 | 0.00 | 89 | 1005.6 |
| 20260508160612 | 49 | 0 | 0.0 | 0.0 | 0.00 | 0.02 | 0.00 | 88 | 1005.5 |
| 20260508155112 | 50 | 0 | 0.0 | 0.0 | 0.00 | 0.02 | 0.00 | 88 | 1005.4 |
| 20260508153614 | 51 | 0 | 0.0 | 0.0 | 0.00 | 0.02 | 0.00 | 88 | 1005.6 |
| 20260508152114 | 51 | 0 | 0.0 | 0.0 | 0.00 | 0.02 | 0.00 | 85 | 1005.5 |
| 20260508150612 | 51 | 0 | 0.0 | 0.0 | 0.00 | 0.02 | 0.00 | 82 | 1005.3 |
| 20260508145112 | 52 | 0 | 0.0 | 0.0 | 0.00 | 0.02 | 0.02 | 81 | 1005.1 |
| 20260508143613 | 53 | 0 | 0.0 | 0.0 | 0.00 | 0.02 | 0.02 | 79 | 1004.9 |
| 20260508142113 | 53 | 0 | 0.0 | 0.0 | 0.00 | 0.02 | 0.02 | 77 | 1004.8 |
| 20260508140612 | 53 | 0 | 0.0 | 0.0 | 0.00 | 0.02 | 0.02 | 77 | 1004.5 |
| 20260508135114 | 54 | 0 | 0.0 | 0.0 | 0.00 | 0.02 | 0.02 | 73 | 1004.5 |
| 20260508133613 | 55 | 0 | 0.0 | 0.0 | 0.00 | 0.02 | 0.02 | 71 | 1004.2 |
| 20260508132112 | 55 | 0 | 0.0 | 0.0 | 0.00 | 0.02 | 0.02 | 71 | 1004.3 |
| 20260508130612 | 56 | 0 | 0.0 | 0.0 | 0.00 | 0.02 | 0.02 | 72 | 1004.0 |
| 20260508125112 | 56 | 0 | 0.0 | 0.0 | 0.00 | 0.02 | 0.02 | 72 | 1003.9 |
| 20260508123613 | 57 | 0 | 0.0 | 0.0 | 0.00 | 0.02 | 0.02 | 71 | 1003.9 |
| 20260508122113 | 58 | 0 | 0.0 | 0.0 | 0.00 | 0.02 | 0.02 | 74 | 1004.0 |
| 20260508120612 | 59 | 0 | 0.0 | 0.0 | 0.00 | 0.02 | 0.02 | 90 | 1003.8 |
| 20260508115114 | 59 | 0 | 0.0 | 0.0 | 0.00 | 0.02 | 0.02 | 90 | 1003.5 |
| 20260508113613 | 59 | 0 | 0.0 | 0.0 | 0.00 | 0.02 | 0.02 | 89 | 1003.0 |
| 20260508112113 | 59 | 0 | 0.0 | 0.0 | 0.00 | 0.02 | 0.02 | 89 | 1002.8 |
| 20260508110612 | 60 | 0 | 0.0 | 0.0 | 0.01 | 0.02 | 0.02 | 88 | 1002.6 |
| 20260508105113 | 60 | 0 | 0.0 | 0.0 | 0.02 | 0.02 | 0.02 | 85 | 1002.3 |
| 20260508103613 | 61 | 0 | 0.0 | 0.0 | 0.02 | 0.02 | 0.02 | 83 | 1002.2 |
| 20260508102112 | 62 | 0 | 0.0 | 0.0 | 0.02 | 0.02 | 0.02 | 82 | 1002.1 |
| 20260508100614 | 65 | 0 | 0.0 | 0.0 | 0.01 | 0.01 | 0.01 | 79 | 1001.8 |
| 20260508095112 | 66 | 0 | 0.0 | 0.0 | 0.00 | 0.00 | 0.00 | 73 | 1001.6 |
| 20260508093613 | 65 | 0 | 0.0 | 0.0 | 0.00 | 0.00 | 0.00 | 80 | 1001.2 |
| 20260508092112 | 66 | 0 | 0.0 | 0.0 | 0.00 | 0.00 | 0.00 | 79 | 1001.2 |
| 20260508090614 | 66 | 0 | 0.0 | 0.0 | 0.00 | 0.00 | 0.00 | 77 | 1001.0 |
| 20260508085113 | 66 | 0 | 0.0 | 0.0 | 0.00 | 0.00 | 0.00 | 76 | 1000.6 |
| 20260508083612 | 68 | 0 | 0.0 | 0.0 | 0.00 | 0.00 | 0.00 | 73 | 1001.1 |
| 20260508082112 | 68 | 0 | 0.0 | 0.0 | 0.00 | 0.00 | 0.00 | 72 | 1001.3 |
| 20260508080613 | 68 | 0 | 0.0 | 0.0 | 0.00 | 0.00 | 0.00 | 70 | 1001.2 |
| 20260508075113 | 68 | 0 | 0.0 | 0.0 | 0.00 | 0.00 | 0.00 | 70 | 1001.4 |
| 20260508073612 | 71 | 0 | 0.0 | 0.0 | 0.00 | 0.00 | 0.00 | 67 | 1001.1 |
| 20260508072113 | 73 | 0 | 0.0 | 0.0 | 0.00 | 0.00 | 0.00 | 66 | 1001.1 |
| 20260508070613 | 74 | 0 | 0.0 | 0.0 | 0.00 | 0.00 | 0.00 | 64 | 1001.2 |
| 20260508065113 | 74 | 0 | 0.0 | 0.0 | 0.00 | 0.00 | 0.00 | 62 | 1001.2 |
| 20260508063613 | 73 | 0 | 0.0 | 0.0 | 0.00 | 0.00 | 0.00 | 62 | 1001.3 |
| 20260508062112 | 73 | 0 | 0.0 | 0.0 | 0.00 | 0.00 | 0.00 | 62 | 1001.6 |
| 20260508060614 | 72 | 0 | 0.0 | 0.0 | 0.00 | 0.00 | 0.00 | 65 | 1001.7 |
| 20260508055113 | 72 | 0 | 0.0 | 0.0 | 0.00 | 0.00 | 0.00 | 65 | 1002.0 |
| 20260508053612 | 73 | 0 | 0.0 | 0.0 | 0.00 | 0.00 | 0.00 | 64 | 1002.1 |
| 20260508052112 | 74 | 0 | 0.0 | 0.0 | 0.00 | 0.00 | 0.00 | 69 | 1002.4 |
| 20260508050613 | 72 | 0 | 0.0 | 0.0 | 0.00 | 0.00 | 0.00 | 65 | 1002.6 |
| 20260508045113 | 71 | 0 | 0.0 | 0.0 | 0.00 | 0.00 | 0.00 | 71 | 1003.0 |
| 20260508043612 | 71 | 0 | 0.0 | 0.0 | 0.00 | 0.00 | 0.00 | 72 | 1003.1 |
| 20260508042114 | 71 | 0 | 0.0 | 0.0 | 0.00 | 0.00 | 0.00 | 72 | 1003.3 |
| 20260508040612 | 71 | 0 | 0.0 | 0.0 | 0.00 | 0.00 | 0.00 | 73 | 1003.6 |
| 20260508035113 | 69 | 0 | 0.0 | 0.0 | 0.00 | 0.00 | 0.00 | 70 | 1003.7 |
| 20260508033612 | 70 | 0 | 0.0 | 0.0 | 0.00 | 0.00 | 0.00 | 70 | 1003.9 |
| 20260508032113 | 70 | 0 | 0.0 | 0.0 | 0.00 | 0.00 | 0.00 | 67 | 1004.1 |
| 20260508030613 | 70 | 0 | 0.0 | 0.0 | 0.00 | 0.00 | 0.00 | 69 | 1004.2 |
| 20260508025112 | 71 | 0 | 0.0 | 0.0 | 0.00 | 0.00 | 0.00 | 72 | 1004.7 |
| 20260508023613 | 69 | 0 | 0.0 | 0.0 | 0.00 | 0.00 | 0.00 | 80 | 1005.4 |
| 20260508022112 | 66 | 0 | 0.0 | 0.0 | 0.00 | 0.00 | 0.00 | 78 | 1005.4 |
| 20260508020612 | 66 | 0 | 0.0 | 0.0 | 0.00 | 0.00 | 0.00 | 78 | 1005.6 |
| 20260508015113 | 65 | 0 | 0.0 | 0.0 | 0.00 | 0.00 | 0.00 | 77 | 1005.9 |
| 20260508013614 | 63 | 0 | 0.0 | 0.0 | 0.00 | 0.00 | 0.00 | 82 | 1005.9 |
| 20260508012113 | 62 | 0 | 0.0 | 0.0 | 0.00 | 0.00 | 0.00 | 81 | 1006.1 |
| 20260508010614 | 62 | 0 | 0.0 | 0.0 | 0.00 | 0.00 | 0.00 | 81 | 1006.6 |
| 20260508005113 | 61 | 0 | 0.0 | 0.0 | 0.00 | 0.00 | 0.00 | 81 | 1006.3 |
| 20260508003612 | 61 | 0 | 0.0 | 0.0 | 0.00 | 0.00 | 0.00 | 81 | 1006.1 |
| 20260508002112 | 61 | 0 | 0.0 | 0.0 | 0.00 | 0.00 | 0.00 | 81 | 1006.8 |
| 20260508000613 | 60 | 0 | 0.0 | 0.0 | 0.00 | 0.00 | 0.00 | 80 | 1006.9 |
| 20260507235113 | 60 | 0 | 0.0 | 0.0 | 0.00 | 0.00 | 0.00 | 79 | 1007.1 |
| 20260507233614 | 61 | 0 | 0.0 | 0.0 | 0.00 | 0.00 | 0.00 | 78 | 1007.6 |
| 20260507232113 | 61 | 0 | 0.0 | 0.0 | 0.00 | 0.00 | 0.00 | 80 | 1007.1 |
| 20260507230613 | 60 | 0 | 0.0 | 0.0 | 0.00 | 0.00 | 0.00 | 81 | 1006.8 |
| 20260507225112 | 60 | 0 | 0.0 | 0.0 | 0.00 | 0.00 | 0.00 | 80 | 1007.1 |
| 20260507223612 | 60 | 0 | 0.0 | 0.0 | 0.00 | 0.00 | 0.00 | 83 | 1007.1 |
| 20260507222112 | 59 | 0 | 0.0 | 0.0 | 0.00 | 0.00 | 0.00 | 88 | 1007.1 |
| 20260507220613 | 58 | 0 | 0.0 | 0.0 | 0.00 | 0.00 | 0.00 | 88 | 1007.2 |
| 20260507215113 | 58 | 0 | 0.0 | 0.0 | 0.00 | 0.00 | 0.00 | 89 | 1007.3 |
| 20260507213613 | 57 | 0 | 0.0 | 0.0 | 0.00 | 0.00 | 0.00 | 90 | 1007.1 |
| 20260507212112 | 57 | 0 | 0.0 | 0.0 | 0.00 | 0.00 | 0.00 | 90 | 1007.3 |
| 20260507211452 | 57 | 0 | 0.0 | 0.0 | 0.00 | 0.00 | 0.00 | 91 | 1007.1 |